San Luis Obispo, CA

7:19 AM PDT on March 24, 2017 (GMT -0700)
San Luis Obispo County-McChesney

Weather History for KSBP - March, 2013

Change the Weather History Date:

Tuesday, March 26, 2013

  Actual Average Record
Temperature  
Mean Temperature 55 °F -  
Max Temperature 66 °F 65 °F 90 °F (2015)
Min Temperature 44 °F 43 °F 35 °F (1985)
Degree Days  
Heating Degree Days 10    
Growing Degree Days 5 (Base 50)    
Moisture  
Dew Point 47 °F    
Average Humidity 88    
Maximum Humidity 100    
Minimum Humidity 56    
Precipitation  
Precipitation 0.00 in - - ()
Sea Level Pressure  
Sea Level Pressure 29.99 in    
Wind  
Wind Speed 3 mph (NE)    
Max Wind Speed 16 mph    
Max Gust Speed 23 mph    
Visibility 7 miles    
Events      
Averages and records for this station are not official NWS values.
T = Trace of Precipitation, MM = Missing Value Source: NWS Daily Summary

Daily Weather History Graph

Daily Weather History Graph

Search for Another Location

Airport or City:

Trip Planner

Search our weather history database for the weather conditions in past years. The results will help you decide how hot, cold, wet, or windy it might be!

Date:

Astronomy

Mar. 26, 2013 Rise Set
Actual Time 6:57 AM PDT 7:19 PM PDT
Civil Twilight 6:31 AM PDT 7:44 PM PDT
Nautical Twilight 6:02 AM PDT 8:14 PM PDT
Astronomical Twilight 5:31 AM PDT 8:45 PM PDT
Moon 7:01 PM PDT (3/26) 6:16 AM PDT (3/26)
Length of Visible Light 13h 13m
Length of Day
12h 22m
Full, 100% of the Moon is Illuminated
Mar 26
Full
Mar 27
Full
Apr 2
Last Quarter
Apr 10
New
Apr 18
First Quarter

Hourly Weather History & Observations

Time (PDT) Temp. Windchill Dew Point Humidity Pressure Visibility Wind Dir Wind Speed Gust Speed Precip Events Conditions
12:08 AM 48.2 °F - 44.6 °F 87% 30.01 in 10.0 mi Calm Calm - N/A   Scattered Clouds
12:15 AM 46.4 °F - 44.6 °F 93% 30.01 in 10.0 mi Calm Calm - N/A   Mostly Cloudy
12:38 AM 44.6 °F 42.2 °F 42.8 °F 93% 30.00 in 9.0 mi SE 4.6 mph - N/A   Scattered Clouds
12:54 AM 46.4 °F - 44.6 °F 93% 30.01 in 9.0 mi Calm Calm - N/A   Scattered Clouds
12:56 AM 45.0 °F - 44.1 °F 97% 30.01 in 9.0 mi Calm Calm - N/A   Mostly Cloudy
1:56 AM 48.0 °F - 46.9 °F 96% 30.00 in 7.0 mi ESE 3.5 mph - N/A   Overcast
2:15 AM 48.2 °F - 46.4 °F 93% 29.99 in 6.0 mi Calm Calm - N/A   Overcast
2:44 AM 46.4 °F - 46.4 °F 100% 29.99 in 2.5 mi Calm Calm - N/A   Overcast
2:53 AM 46.4 °F 45.2 °F 46.4 °F 100% 29.99 in 3.0 mi East 3.5 mph - N/A   Overcast
2:56 AM 46.9 °F - 46.9 °F 100% 29.99 in 3.0 mi East 3.5 mph - N/A   Overcast
3:56 AM 46.9 °F - 46.9 °F 100% 29.98 in 3.0 mi Calm Calm - N/A   Overcast
4:07 AM 46.4 °F 44.3 °F 46.4 °F 100% 29.97 in 2.5 mi South 4.6 mph - N/A   Overcast
4:27 AM 46.4 °F 44.3 °F 46.4 °F 100% 29.97 in 1.8 mi ESE 4.6 mph - N/A   Overcast
4:43 AM 46.4 °F - 46.4 °F 100% 29.98 in 2.5 mi Calm Calm - N/A   Overcast
4:56 AM 46.9 °F - 46.9 °F 100% 29.99 in 4.0 mi Calm Calm - N/A   Overcast
5:07 AM 46.4 °F 44.3 °F 46.4 °F 100% 29.98 in 2.0 mi ENE 4.6 mph - N/A   Overcast
5:26 AM 46.4 °F 45.2 °F 46.4 °F 100% 29.97 in 3.0 mi East 3.5 mph - N/A   Overcast
5:56 AM 46.9 °F - 46.0 °F 97% 29.98 in 3.0 mi Calm Calm - N/A   Overcast
6:56 AM 46.9 °F - 46.0 °F 97% 29.98 in 3.0 mi ESE 4.6 mph - N/A   Overcast
7:56 AM 46.0 °F 44.8 °F 45.0 °F 96% 29.99 in 5.0 mi SE 3.5 mph - N/A   Overcast
8:56 AM 46.9 °F - 46.0 °F 97% 30.00 in 5.0 mi Calm Calm - N/A   Overcast
9:31 AM 48.2 °F - 44.6 °F 87% 30.01 in 9.0 mi Calm Calm - N/A   Overcast
9:56 AM 48.9 °F - 46.0 °F 90% 30.02 in 8.0 mi Calm Calm - N/A   Overcast
10:36 AM 51.8 °F - 46.4 °F 82% 30.01 in 10.0 mi Calm Calm - N/A   Overcast
10:56 AM 52.0 °F - 46.0 °F 80% 30.02 in 10.0 mi SE 3.5 mph - N/A   Scattered Clouds
11:35 AM 55.4 °F - 46.4 °F 72% 30.01 in 10.0 mi Calm Calm - N/A   Scattered Clouds
11:56 AM 57.9 °F - 48.0 °F 70% 30.01 in 10.0 mi SSW 3.5 mph - N/A   Scattered Clouds
12:56 PM 62.1 °F - 46.0 °F 56% 29.99 in 10.0 mi Calm Calm - N/A   Clear
1:56 PM 66.0 °F - 50.0 °F 56% 29.97 in 10.0 mi NW 9.2 mph - N/A   Clear
2:56 PM 63.0 °F - 50.0 °F 63% 29.96 in 10.0 mi NW 15.0 mph - N/A   Clear
3:56 PM 63.0 °F - 50.0 °F 63% 29.95 in 10.0 mi WNW 11.5 mph - N/A   Clear
4:56 PM 61.0 °F - 50.0 °F 67% 29.94 in 10.0 mi NW 16.1 mph - N/A   Clear
5:56 PM 57.9 °F - 48.0 °F 70% 29.94 in 10.0 mi NW 15.0 mph 23.0 mph N/A   Clear
6:56 PM 53.1 °F - 48.0 °F 83% 29.95 in 10.0 mi NNW 13.8 mph - N/A   Clear
7:56 PM 50.0 °F - 46.9 °F 89% 29.96 in 10.0 mi NW 12.7 mph - N/A   Clear
8:56 PM 50.0 °F - 46.9 °F 89% 29.98 in 10.0 mi NNW 8.1 mph - N/A   Clear
9:37 PM 50.0 °F - 46.4 °F 87% 30.00 in 10.0 mi North - - N/A   Mostly Cloudy
9:44 PM 50.0 °F - 46.4 °F 87% 30.00 in 10.0 mi North - - N/A   Scattered Clouds
9:56 PM 50.0 °F - 46.9 °F 89% 30.01 in 10.0 mi North - - N/A   Scattered Clouds
10:56 PM 48.0 °F - 46.0 °F 93% 30.00 in 10.0 mi NNW 3.5 mph - N/A   Clear
11:56 PM 48.0 °F - 46.0 °F 93% 30.00 in 10.0 mi Calm Calm - N/A   Mostly Cloudy